Content
SEND FEEDBACK

Daily
Averages
Monthly
Summary
United States of America

AGAT, GUAM


Home > North America > United States > Guam
Elevation: 364 feet     Latitude: 13 33N     Longitude: 144 50E

WEATHER
 
SELECT A DAY
Number of Records: 208,860;   Date Range: 1/1/95 - 7/20/14
 
SHARE

PRINT THIS DATA

[ ← Previous Day ]
WEATHER ALMANAC - FEBRUARY 15, 2013
[ Next Day → ]
[ °C ]   °F
Weather ElementAverageHighLow
Temperature80.1 °F86 °F (11:36 am)73.4 °F (8:14 am)
Dewpoint72.3 °F73.9 °F (11:54 am)69.1 °F (8:54 am)
Humidity78 %97 % (7:54 am)63 % (1:54 pm)
Barometer29.82 in29.88 in (8:14 am)29.77 in (3:54 pm)
Wind Speed15.6 mph23 mph (1:54 pm)
Wind Gust28.8 mph (7:54 am)
Weather ElementAverage
Visibility9.9 mi
Wind DirectionENE (70.4 °)

Weather ElementTotal
Precipitation0.01 in
Cooling Degree Days14.7 (Base 65)
Growing Degree Days29.7 (Base 50)
Averaged from 27 records on February 15, 2013
WEATHER CONDITIONS BREAKOUT
WIND DIRECTION BREAKOUT
WEATHER BY HOUR - FEBRUARY 15, 2013
[ °C ]   °F
Local TimeTemperatureDewpointHumidityBarometerVisibilityWind DirectionWind SpeedGust SpeedPrecipitationEventsConditions
1:54 AM75.0 °F73.0 °F94 %29.83 in10.0 miENE (70°)11.5 mph0.00 inScattered Clouds
2:54 AM75.0 °F73.0 °F94 %29.81 in10.0 miENE (70°)15.0 mph0.00 inPartly Cloudy
3:54 AM75.0 °F72.0 °F90 %29.80 in10.0 miENE (60°)8.1 mphScattered Clouds
4:54 AM75.0 °F72.0 °F90 %29.80 in10.0 miENE (60°)9.2 mphClear
5:54 AM75.0 °F72.0 °F90 %29.81 in10.0 miENE (70°)9.2 mphClear
6:54 AM75.9 °F73.0 °F91 %29.84 in10.0 miEast (90°)10.4 mphMostly Cloudy
7:54 AM73.9 °F73.0 °F97 %29.86 in8.0 miEast (80°)20.7 mph28.8 mph0.01 inRainLight Rain
8:14 AM73.4 °F71.6 °F94 %29.88 in9.0 miEast (80°)12.7 mph0.00 inOvercast
8:54 AM75.0 °F69.1 °F82 %29.87 in10.0 miEast (80°)9.2 mph0.00 inOvercast
9:54 AM79.0 °F72.0 °F79 %29.88 in10.0 miEast (80°)16.1 mph25.3 mphPartly Cloudy
10:54 AM84.0 °F72.9 °F69 %29.86 in10.0 miEast (80°)17.3 mph28.8 mphPartly Cloudy
11:18 AM84.2 °F73.4 °F70 %29.88 in10.0 miENE (70°)19.6 mph28.8 mphMostly Cloudy
11:36 AM86.0 °F73.4 °F66 %29.87 in10.0 miENE (60°)19.6 mph25.3 mphScattered Clouds
11:54 AM85.3 °F73.9 °F69 %29.83 in10.0 miENE (60°)19.6 mph25.3 mphPartly Cloudy
12:54 PM86.0 °F72.5 °F64 %29.82 in10.0 miEast (80°)21.9 mph28.8 mphPartly Cloudy
1:45 PM86.0 °F73.4 °F66 %29.83 in10.0 miEast (80°)20.7 mph25.3 mphMostly Cloudy
1:54 PM85.8 °F72.0 °F63 %29.80 in10.0 miENE (70°)23.0 mph28.8 mphMostly Cloudy
2:54 PM85.5 °F72.7 °F65 %29.78 in10.0 miENE (70°)19.6 mph25.3 mphPartly Cloudy
3:54 PM84.6 °F72.9 °F68 %29.77 in10.0 miEast (80°)18.4 mph26.5 mphMostly Cloudy
4:54 PM84.6 °F72.9 °F68 %29.77 in10.0 miENE (60°)18.4 mphScattered Clouds
5:54 PM81.7 °F72.7 °F74 %29.78 in10.0 miENE (60°)18.4 mph25.3 mphPartly Cloudy
6:54 PM79.9 °F72.1 °F77 %29.79 in10.0 miENE (60°)12.7 mphPartly Cloudy
7:54 PM79.3 °F71.6 °F77 %29.80 in10.0 miENE (60°)11.5 mphPartly Cloudy
8:54 PM79.0 °F72.0 °F79 %29.82 in10.0 miENE (70°)12.7 mphPartly Cloudy
9:54 PM79.3 °F71.1 °F76 %29.82 in10.0 miENE (70°)15.0 mphPartly Cloudy
10:54 PM79.3 °F71.2 °F76 %29.81 in10.0 miENE (60°)16.1 mphPartly Cloudy
11:54 PM79.2 °F71.4 °F77 %29.80 in10.0 miENE (70°)15.0 mphPartly Cloudy
Hourly data recorded from PGUM, located miles away from Agat, Guam







STORIES FROM OUR PARTNERS